Theta_e
348 346 342 340 338 337 336 336 334 332 330 329 330 329 326 321 320 318 317 320 328 333 335 336 337 338 338 338 337 335 332 330 328 328 328 326 320 315 315 314 315 315 315 316 314 310 309 310 309 309 309 309 309 309 309 309 308 309 313 315 316 315 315 314 311 311 311 320 327 330 332 331 331 329 328 328 329 329 330 332 333 334 334 335 335
348 346 341 339 338 337 336 336 334 332 329 329 330 328 324 321 319 317 317 319 324 330 333 335 336 337 337 336 334 331 328 327 327 326 325 322 318 316 315 315 315 317 319 318 313 311 310 309 309 309 309 309 308 309 309 309 308 310 313 315 318 317 315 315 311 309 308 313 323 329 331 332 331 329 327 326 327 329 330 331 332 333 334 335 335
347 346 341 340 338 336 336 336 334 331 329 329 330 327 325 322 320 317 316 318 322 327 329 331 332 334 334 333 332 329 327 325 323 322 321 319 317 316 315 316 321 324 325 319 314 312 310 309 309 309 309 310 311 312 312 312 311 312 316 316 317 319 316 315 311 309 310 310 316 324 329 331 331 331 328 326 325 328 330 330 332 333 334 335 335
347 344 341 340 338 337 336 336 334 331 329 329 329 327 325 323 321 318 317 318 322 324 325 327 329 331 332 331 330 328 326 323 320 319 319 318 316 315 315 319 324 326 323 317 314 312 310 310 309 311 314 314 314 316 317 316 316 317 321 321 319 320 318 315 310 307 310 310 311 316 324 329 331 331 330 328 324 325 328 331 332 333 334 334 334
346 343 341 339 338 336 336 336 334 331 328 329 329 327 325 323 322 319 319 320 323 324 325 325 326 328 329 330 330 329 327 327 325 324 325 321 317 315 316 320 322 320 318 316 314 312 312 312 311 317 322 321 319 321 321 320 320 320 321 323 321 320 319 316 311 307 308 311 312 311 316 325 328 329 330 330 327 325 326 329 331 331 333 333 333
344 342 341 339 338 336 336 336 334 332 328 328 329 327 325 324 323 320 321 322 323 325 326 326 326 327 328 327 331 334 333 332 331 331 331 325 322 321 316 319 319 316 317 315 314 313 315 314 313 320 325 323 323 323 324 322 321 321 321 322 321 319 318 318 314 308 307 309 312 311 311 317 324 328 329 329 329 327 326 326 328 330 331 332 330
342 340 339 338 337 336 336 336 334 332 328 329 329 328 325 324 324 321 320 321 323 324 325 326 325 327 328 325 326 331 333 334 333 333 331 324 325 324 317 317 316 315 316 314 314 315 318 319 320 323 324 323 323 323 324 324 321 321 323 322 320 318 319 319 315 309 307 308 310 312 310 312 317 321 325 328 328 328 327 325 324 327 329 330 327
340 338 337 336 336 335 336 336 335 332 328 329 329 328 326 325 325 323 321 318 319 320 322 325 323 327 330 328 327 327 329 331 330 328 325 322 326 325 320 318 315 314 315 314 314 316 320 323 324 324 324 324 323 324 324 324 323 323 323 322 320 318 319 319 316 310 307 308 308 311 312 312 312 315 319 324 326 326 326 325 324 324 327 328 325
338 335 334 334 335 335 336 336 335 332 328 328 329 329 327 326 325 324 323 320 318 318 320 321 321 328 332 332 331 330 330 331 328 321 319 320 325 325 322 320 315 313 314 314 314 316 321 325 326 324 324 326 325 325 323 324 324 324 323 322 320 319 320 318 315 311 308 308 308 309 311 312 313 316 317 317 320 321 320 322 323 322 323 325 323
335 333 333 334 334 335 336 336 335 333 329 328 330 330 329 327 326 325 324 323 321 320 320 320 320 327 331 332 330 328 329 329 326 320 317 319 325 326 322 319 314 313 314 315 316 316 320 325 327 326 325 326 326 324 322 324 325 324 323 322 320 321 320 316 313 312 310 308 307 308 310 312 312 314 315 312 314 316 317 319 321 321 319 320 320
332 332 333 334 334 335 335 335 335 333 329 328 330 330 330 329 328 326 325 325 324 322 322 322 324 328 330 330 328 326 325 324 321 319 319 321 324 324 323 321 314 313 314 316 318 320 322 325 326 327 327 326 326 324 322 324 325 324 322 322 321 321 320 315 313 312 311 309 308 307 308 311 311 313 313 311 313 316 317 317 318 319 317 315 314
331 332 333 334 334 335 335 335 335 334 330 327 329 331 331 331 330 327 326 326 326 325 323 323 326 328 328 327 326 325 323 322 322 321 320 323 325 322 321 322 316 314 316 317 319 322 324 326 327 329 328 326 325 324 323 323 325 325 322 322 322 320 318 317 314 312 312 311 309 308 307 308 310 313 315 314 314 314 312 311 313 313 312 311 311
331 332 332 333 334 335 335 335 335 335 331 328 329 331 332 333 332 329 327 326 327 327 325 326 327 328 327 326 325 323 322 320 321 321 321 324 327 325 322 322 318 315 317 319 320 323 325 328 329 328 327 325 324 324 324 324 325 325 323 324 323 319 318 320 318 313 312 311 310 309 308 308 309 312 314 314 313 310 308 308 308 308 308 308 309
330 330 331 332 333 335 335 336 336 335 333 329 328 331 332 333 333 331 328 326 328 327 327 328 328 328 327 326 326 323 321 320 320 323 325 325 326 326 328 326 319 315 317 319 321 324 327 329 329 328 326 324 325 324 324 323 324 325 324 325 323 319 319 322 321 316 313 312 312 310 309 308 308 309 310 311 310 309 308 308 308 307 308 307 308
330 329 329 330 331 334 335 336 336 336 334 330 328 330 332 333 334 333 328 326 327 327 328 328 328 328 327 327 326 324 323 321 319 321 325 326 325 325 328 326 320 316 316 319 321 325 329 330 329 327 325 324 325 326 324 323 324 325 324 324 324 321 321 324 322 318 315 313 312 311 311 310 308 308 308 309 309 309 309 308 309 309 309 308 309
330 329 329 329 330 333 335 336 336 336 335 332 329 329 331 333 334 334 329 325 326 326 327 327 327 327 328 328 327 326 326 324 324 322 322 323 325 324 324 323 322 319 316 318 321 325 329 331 330 328 326 324 326 327 326 324 324 325 324 324 324 324 324 325 324 320 318 316 314 312 312 311 310 308 307 308 308 309 309 309 309 309 310 310 310
330 329 328 328 329 333 335 336 336 336 335 333 329 329 332 333 334 334 328 323 324 323 325 328 329 330 331 331 330 329 327 327 328 327 327 326 325 325 327 329 329 325 319 318 321 326 329 330 330 329 328 326 326 328 327 325 325 325 325 324 323 324 326 326 325 322 321 318 316 314 312 312 311 310 309 308 308 308 308 308 309 309 309 310 310
329 328 327 327 329 333 335 336 336 336 335 333 331 330 331 333 334 333 326 322 321 320 326 332 333 333 333 333 332 330 326 326 327 329 330 328 327 328 331 331 332 330 324 320 320 323 327 330 331 330 330 328 327 328 327 326 326 325 325 325 324 324 325 326 326 324 323 320 317 316 314 313 312 312 311 309 309 308 308 308 308 308 308 309 309
328 327 327 328 330 333 335 336 336 336 335 333 332 332 333 333 333 331 325 321 320 321 328 333 333 333 334 334 332 329 328 328 329 330 328 326 326 328 329 329 331 329 324 321 319 319 323 328 330 331 331 330 328 328 329 328 327 327 325 325 326 325 325 325 325 324 323 322 320 318 316 315 314 313 312 311 311 310 308 307 307 307 308 308 308
328 328 328 329 330 333 335 335 335 335 335 333 332 332 333 333 332 329 323 322 323 325 329 332 333 333 333 334 333 330 328 329 331 331 327 323 322 321 322 322 322 321 319 320 319 318 319 323 326 328 331 331 329 329 331 330 330 329 326 325 327 327 326 325 324 324 325 324 323 321 319 318 316 315 314 312 312 311 310 309 307 307 307 307 308
332 330 329 330 331 333 334 335 335 335 335 333 331 332 333 332 331 326 322 324 327 328 330 331 333 333 333 333 333 331 329 328 329 331 329 326 324 322 320 319 318 317 317 318 318 318 317 318 320 322 326 330 330 330 331 331 332 331 329 326 326 328 327 326 326 326 326 327 325 324 322 321 319 317 316 314 313 312 311 310 309 307 307 307 307
334 332 331 332 332 333 333 334 335 336 336 333 331 333 334 332 329 324 323 326 330 331 331 332 333 333 333 332 332 330 329 327 328 330 330 329 329 327 324 322 321 320 319 318 318 318 318 317 317 317 322 328 329 330 331 331 332 332 330 328 327 328 327 327 328 328 328 328 327 326 325 324 322 319 318 316 314 312 311 311 310 309 307 307 306
335 333 333 333 332 332 333 334 335 335 335 333 331 333 334 332 327 322 324 330 332 332 332 332 333 333 333 332 332 329 328 327 328 329 330 331 330 329 327 326 325 323 322 322 320 318 318 317 316 316 319 324 327 329 331 331 332 333 331 330 328 328 328 328 329 329 330 329 328 328 328 327 325 322 319 317 316 312 311 311 309 309 309 307 306
334 334 334 333 332 331 332 334 334 334 334 332 331 332 333 331 325 321 326 331 332 332 332 333 333 333 333 332 331 327 327 328 329 330 330 331 331 329 328 327 327 326 324 323 322 320 318 318 317 316 316 319 322 327 330 329 331 333 332 331 330 329 329 329 329 328 329 329 329 329 329 329 327 325 321 319 317 314 312 311 310 309 309 308 307
334 334 334 332 331 330 332 333 333 333 333 331 331 331 333 330 323 322 327 330 332 332 332 332 332 333 333 332 330 326 326 329 331 330 330 329 329 328 327 327 327 326 324 323 323 321 319 319 318 317 316 316 317 323 327 326 329 333 333 332 330 329 330 330 329 328 328 329 329 329 329 329 328 327 324 321 319 316 313 311 310 309 309 308 308
334 335 333 330 330 331 332 333 331 332 331 330 331 331 331 328 323 324 328 330 331 332 332 332 331 332 333 332 328 326 328 331 331 330 329 328 327 327 327 327 327 327 325 323 323 322 321 320 319 319 317 317 317 319 322 323 328 332 333 332 330 329 331 331 329 328 328 329 330 330 329 329 328 327 325 323 320 318 316 313 311 310 309 308 308
335 334 332 330 330 331 332 332 330 331 330 330 330 331 331 327 323 325 329 330 331 331 331 331 331 332 333 330 326 326 329 330 330 329 329 328 327 327 327 327 327 327 326 325 324 322 322 322 321 320 319 319 318 320 322 323 327 331 333 333 331 330 330 330 328 329 330 330 330 330 329 329 328 326 325 324 322 319 317 315 313 311 309 309 308
334 333 332 331 330 331 332 331 331 331 330 330 331 331 330 327 323 326 329 330 331 331 331 331 331 333 332 329 326 327 329 328 328 328 328 328 327 328 328 327 326 327 327 326 325 323 323 324 324 324 323 322 321 321 322 324 326 329 331 332 331 330 329 329 329 330 331 331 330 330 329 328 327 325 324 325 323 319 318 316 314 312 310 309 308
334 334 333 332 331 331 331 331 331 331 331 330 331 331 330 328 325 327 330 330 331 331 331 331 331 333 330 327 327 328 328 326 326 326 327 328 328 327 327 327 327 327 328 327 327 324 323 324 325 326 326 326 325 324 325 325 325 325 327 329 330 330 329 329 329 330 331 331 330 329 328 327 327 326 324 324 323 320 319 318 315 313 310 309 308
334 334 333 332 332 331 331 331 331 331 331 331 332 331 330 329 326 327 329 330 331 331 331 331 331 332 328 326 328 328 327 326 326 326 327 328 327 327 327 327 327 327 328 328 328 327 326 325 325 325 326 327 327 327 327 327 327 325 324 325 327 328 329 329 329 330 331 331 330 329 328 327 327 328 325 323 323 322 321 318 316 313 310 310 309
333 334 334 333 332 331 331 331 331 331 331 331 332 331 331 330 327 328 330 331 331 331 332 331 332 331 327 326 327 327 326 326 325 326 327 328 327 327 326 326 327 327 327 327 327 328 328 327 327 327 327 327 328 328 328 328 328 328 327 326 327 328 328 329 328 330 331 331 330 328 328 327 327 328 325 323 324 324 323 322 320 316 311 310 310
334 334 335 333 332 331 331 331 331 331 331 331 332 331 331 330 330 330 330 330 330 331 331 331 332 331 327 325 326 327 327 326 325 326 326 327 328 327 327 326 326 326 326 326 326 327 328 327 327 327 327 326 326 326 327 328 327 327 327 327 327 328 328 328 328 329 330 330 328 327 327 327 326 326 325 324 325 324 324 324 323 321 317 314 315
335 335 335 333 333 332 331 331 331 331 331 332 332 331 331 331 331 332 330 330 330 331 331 332 332 330 327 325 326 328 327 326 326 325 325 327 328 328 328 328 327 326 326 325 325 326 327 327 326 326 326 325 325 325 326 327 326 325 326 326 327 327 328 328 327 328 329 328 328 327 327 327 325 325 325 325 326 326 325 323 322 322 323 322 323
336 335 335 334 333 332 331 332 331 331 332 331 331 331 331 332 332 332 331 330 330 331 332 332 331 329 327 326 327 328 328 326 326 325 326 327 328 328 328 328 328 327 326 325 324 324 325 325 325 325 325 325 325 325 325 325 326 326 326 327 328 327 327 327 327 328 328 328 328 327 327 326 325 325 325 325 326 326 325 324 321 321 324 324 327
337 335 335 334 333 332 331 332 331 331 331 331 331 331 332 332 332 331 330 329 329 330 331 330 329 328 327 328 328 328 328 328 327 327 327 327 328 328 328 328 328 327 326 325 324 323 324 325 325 325 325 325 325 325 325 325 327 328 327 328 328 327 326 326 327 327 326 327 328 327 327 327 326 325 325 325 326 326 326 325 321 320 323 324 326
338 336 335 335 333 333 332 332 331 331 331 331 332 332 333 332 331 330 329 329 329 329 329 328 328 328 328 328 328 328 328 328 328 328 328 327 328 328 328 328 327 327 327 325 323 323 324 325 325 325 325 325 325 325 325 326 328 328 328 328 328 326 326 326 326 325 326 327 328 327 327 327 327 326 325 325 325 326 327 325 322 320 322 324 325
338 337 336 335 334 334 334 333 332 331 331 331 332 332 332 332 330 329 329 329 329 329 329 328 328 328 328 327 328 329 329 328 328 328 327 327 328 328 328 328 327 327 326 324 323 323 324 325 325 324 325 326 326 325 326 327 327 327 327 327 327 326 326 325 325 325 325 326 327 328 328 328 327 326 326 326 325 325 326 326 324 322 320 321 322
338 337 336 335 335 336 335 335 332 332 332 332 333 332 332 331 330 329 330 330 329 329 328 328 328 328 328 328 328 329 328 328 328 328 328 327 328 328 328 328 327 327 326 325 323 323 324 324 325 325 325 326 326 326 326 327 327 326 326 326 327 326 325 325 324 324 324 325 328 329 329 328 327 326 327 326 325 325 326 325 325 324 322 320 320
339 338 337 336 337 337 336 335 333 333 333 333 333 332 332 331 330 330 330 330 329 328 328 329 329 328 328 328 328 328 327 327 327 327 326 327 327 327 328 328 327 327 327 325 324 324 324 324 325 325 326 325 325 326 326 326 326 326 326 326 326 325 325 325 324 325 325 326 328 329 329 327 327 326 327 326 325 325 326 326 325 325 324 321 321
339 338 339 338 338 338 336 335 334 334 334 333 333 332 331 330 330 331 330 330 328 328 329 329 329 329 328 327 327 326 326 326 326 324 324 325 326 327 328 327 327 327 326 326 325 325 325 324 324 325 326 325 325 326 326 326 326 326 326 326 326 325 325 325 325 326 326 326 327 328 328 328 327 327 326 326 325 325 326 326 326 325 325 323 322
339 339 339 338 339 338 336 335 334 334 334 333 332 331 330 330 330 330 330 329 328 329 330 330 329 328 327 326 325 325 326 325 324 324 324 325 327 327 328 327 327 327 326 326 325 325 325 325 325 324 324 324 324 325 325 326 326 326 327 327 326 326 326 325 326 327 327 327 327 328 328 328 328 327 326 326 325 325 326 326 325 325 325 325 324
339 338 338 338 339 338 337 335 334 334 334 333 331 331 330 329 329 329 329 329 329 329 329 328 328 327 327 325 323 323 324 324 323 324 325 325 326 327 327 327 327 326 326 325 325 326 326 325 325 324 324 324 324 324 325 326 327 327 327 327 327 327 327 326 326 327 327 327 327 328 328 327 328 327 327 327 326 325 326 326 325 325 325 325 325
339 338 338 339 339 338 336 335 334 333 333 332 330 330 330 329 329 328 328 329 329 329 327 327 326 325 325 323 320 319 321 322 323 324 324 324 324 325 325 326 326 326 325 325 325 326 326 326 325 324 324 324 323 323 324 326 327 327 327 327 327 327 327 327 327 327 327 327 327 327 328 327 327 327 327 327 327 326 326 326 325 324 324 324 325
339 338 338 338 338 338 336 334 334 333 332 331 330 330 330 329 328 328 329 330 329 328 326 324 321 321 322 321 317 317 319 322 323 323 324 324 323 323 324 325 325 326 325 325 325 326 326 326 325 324 324 323 322 323 325 327 327 327 328 327 327 326 325 326 326 327 327 327 327 327 327 327 326 326 326 326 326 326 326 326 326 325 324 324 325
338 337 337 337 337 337 335 334 334 333 332 330 329 329 330 329 328 329 330 329 329 327 323 320 316 315 316 317 316 318 320 321 323 324 324 324 323 322 323 323 324 325 325 325 326 326 326 326 325 324 324 324 323 322 324 326 327 327 327 326 326 325 325 325 325 325 325 326 327 326 326 326 325 326 326 325 326 326 325 326 326 325 325 325 325
338 337 337 336 336 335 335 334 334 333 332 330 329 329 329 328 326 328 329 329 329 326 322 319 317 314 314 316 316 318 319 320 321 322 322 321 321 321 322 323 323 324 324 325 325 326 326 326 326 325 324 324 325 324 324 326 326 327 327 326 325 325 325 324 324 324 324 325 326 326 325 325 325 326 326 325 324 324 324 325 325 324 324 323 323
337 337 337 336 335 335 334 334 334 333 332 331 330 329 329 327 327 328 328 328 327 323 322 323 322 319 317 317 316 317 318 319 319 318 317 318 318 319 321 322 323 323 324 325 325 325 326 326 325 325 325 324 325 325 325 326 326 326 326 326 325 325 325 324 324 323 324 325 325 325 325 325 326 326 325 323 323 323 324 323 323 322 321 321 322
337 337 337 336 334 334 334 334 334 332 332 331 330 329 328 328 328 329 328 328 325 323 324 326 325 322 319 318 316 316 317 317 316 313 313 315 316 318 321 323 323 324 324 325 325 324 325 325 324 324 325 325 325 325 325 325 326 326 326 326 325 325 325 324 323 323 323 324 324 324 325 325 325 324 323 322 322 322 322 322 321 320 320 321 322
337 337 337 335 334 334 334 334 333 333 332 331 330 329 329 329 329 329 328 328 325 325 326 327 325 321 319 318 318 316 315 314 312 311 310 313 315 318 321 323 324 325 325 325 325 325 324 324 324 324 325 325 325 325 325 325 325 326 326 326 325 325 325 324 324 324 322 323 323 324 324 324 323 322 322 322 321 321 321 321 321 321 321 321 321
336 337 337 335 334 334 334 334 333 333 332 331 329 329 330 330 330 329 327 327 327 327 327 325 322 319 318 318 318 317 314 311 310 310 312 314 316 318 319 320 322 323 324 323 323 324 324 324 322 323 324 325 325 325 324 325 325 326 326 325 325 324 325 324 324 324 323 322 323 324 324 323 322 322 321 321 321 321 321 321 321 321 321 321 321
336 336 336 335 334 333 333 334 333 333 332 330 330 330 330 330 329 328 327 327 328 327 324 320 317 316 316 316 316 315 314 313 313 313 316 317 318 318 318 318 319 319 320 319 319 320 322 322 321 321 322 323 324 324 324 324 324 325 325 325 324 324 324 324 324 324 323 322 322 324 324 323 322 321 321 320 320 320 320 320 321 320 320 320 320
Wind_Speed
28 29 29 27 25 24 24 24 23 21 20 18 17 15 14 13 13 14 16 18 19 19 19 19 18 17 16 16 14 13 12 11 11 10 9 9 9 10 11 12 13 12 12 12 13 14 14 15 16 17 17 17 18 18 19 19 21 24 26 27 27 27 27 27 25 20 18 18 20 21 19 19 19 18 18 16 17 16 16 16 16 17 18 17 18
31 30 30 28 25 24 24 24 23 21 20 19 17 15 14 13 13 14 16 18 19 20 20 19 19 18 18 17 15 14 13 12 11 10 10 9 10 11 11 12 13 13 13 13 14 15 15 15 16 17 16 16 17 18 18 18 21 24 26 27 27 27 27 27 27 23 19 17 18 20 20 19 18 18 17 16 16 16 15 15 15 17 17 16 17
32 30 30 28 25 24 24 25 23 21 20 19 17 16 15 13 13 14 16 18 19 20 20 20 20 19 19 18 16 15 13 12 11 10 11 11 11 12 12 13 14 15 14 14 15 15 15 15 16 16 15 15 16 16 16 17 19 21 23 25 27 27 27 27 26 25 20 16 16 18 19 19 18 17 16 16 14 14 14 14 14 15 16 16 16
32 31 31 28 25 24 24 25 23 21 20 19 17 16 15 14 13 14 16 18 19 20 20 20 20 20 19 18 17 15 14 12 12 11 11 12 13 13 13 14 15 15 15 15 16 16 16 15 16 16 15 15 15 15 15 15 17 20 21 21 24 26 26 27 26 25 22 18 15 15 18 20 19 17 16 15 14 13 13 13 13 13 14 14 14
32 32 31 28 26 24 25 25 24 21 20 19 17 16 15 14 14 14 15 17 18 18 18 19 19 19 19 18 17 15 14 13 13 12 11 12 13 15 14 15 15 15 16 16 17 16 16 15 16 16 15 15 14 15 15 15 17 20 21 20 22 25 26 26 26 24 23 20 17 14 16 19 19 19 17 15 14 12 11 11 12 12 12 12 12
31 32 31 29 26 25 25 25 24 21 20 19 18 17 16 15 14 14 15 16 17 17 17 18 18 18 18 18 18 16 15 15 15 14 13 12 13 15 15 15 15 16 17 17 17 16 16 16 16 16 15 15 15 15 17 18 19 21 22 22 22 24 25 25 25 24 22 21 19 17 15 16 17 17 16 15 15 13 11 11 10 10 10 10 10
30 31 30 28 26 25 26 25 24 22 20 19 18 17 16 15 14 14 14 15 16 16 17 17 18 18 17 17 18 18 17 17 16 16 14 12 14 15 16 16 16 17 18 18 18 17 17 17 16 15 15 14 14 15 18 20 21 21 22 22 22 23 25 25 25 23 22 20 19 18 16 15 15 13 12 13 14 12 11 11 10 10 9 9 8
28 29 29 28 26 26 26 26 24 22 21 19 18 17 16 15 14 14 14 15 15 16 17 17 17 18 16 15 16 17 17 17 16 16 14 13 15 15 16 16 17 18 19 19 18 17 17 17 16 15 14 13 14 15 18 20 20 21 21 21 21 23 24 24 24 23 21 21 20 18 17 16 15 13 12 11 12 11 11 11 10 10 9 8 7
27 28 28 27 26 26 26 25 24 22 21 20 19 17 16 15 14 14 14 15 15 16 16 17 17 17 17 15 15 15 15 15 14 14 14 14 15 15 16 16 17 19 19 19 18 17 18 17 16 15 14 13 13 14 18 19 19 19 20 20 21 22 23 24 23 22 22 21 20 19 17 17 16 15 14 12 12 10 11 11 10 10 10 8 7
27 27 27 27 26 26 26 25 24 23 21 20 19 17 16 14 14 14 15 15 15 15 16 16 17 17 17 16 15 15 15 15 14 13 13 13 14 14 15 16 18 19 19 19 18 18 18 17 16 15 13 12 11 13 17 18 18 18 18 19 20 21 22 23 23 22 22 21 20 19 18 17 18 17 16 15 14 12 11 11 11 10 9 8 7
27 28 27 26 26 25 26 25 24 23 21 20 18 17 16 14 14 14 14 14 14 14 15 15 16 17 16 16 15 14 14 14 13 13 12 13 13 12 13 15 18 19 20 20 19 19 18 17 16 16 14 12 10 11 15 17 16 17 17 18 19 21 22 22 22 22 22 20 20 19 18 18 19 19 18 18 17 15 14 14 13 11 10 8 7
28 28 27 25 25 25 25 25 24 22 20 20 19 17 15 14 14 14 14 13 13 13 13 14 15 16 16 15 13 13 13 13 12 12 12 12 11 11 12 14 17 19 21 21 19 19 19 18 17 16 14 12 10 9 13 16 16 16 16 17 18 20 22 22 22 22 22 20 20 19 18 19 18 17 17 18 18 17 17 17 15 14 13 11 10
28 28 26 25 24 24 25 25 24 22 20 19 19 17 15 14 13 13 12 12 13 13 13 14 14 15 14 14 13 12 12 12 11 11 12 12 12 11 11 14 17 19 21 21 20 20 20 19 18 16 14 11 10 8 9 14 15 15 16 17 18 19 21 22 22 21 21 20 19 18 18 19 18 17 16 17 17 18 18 18 17 16 15 15 13
29 28 26 25 24 24 24 24 24 22 21 19 19 17 15 14 13 13 11 11 12 12 13 13 13 13 13 13 13 12 12 12 12 12 13 13 12 12 12 13 17 19 21 22 20 21 21 19 18 16 13 11 10 8 7 11 14 14 15 16 17 19 19 21 21 21 20 20 19 18 18 18 18 17 17 17 16 17 17 18 18 17 16 16 16
29 28 26 25 25 25 24 24 24 23 21 19 19 18 15 14 13 12 10 10 12 13 13 13 13 13 13 12 12 12 11 11 12 12 12 12 12 13 13 13 17 20 21 22 21 21 21 20 18 16 14 11 10 8 6 7 11 13 13 14 16 17 17 19 19 19 20 19 18 17 17 17 17 17 17 16 16 15 16 17 17 17 16 16 16
27 26 25 26 25 26 26 25 24 23 21 20 19 18 16 13 12 11 10 10 12 13 13 14 14 14 13 13 12 11 11 11 12 12 12 12 12 13 13 13 16 19 20 21 21 22 21 20 19 17 14 12 10 9 7 5 8 11 11 12 13 14 15 16 17 17 18 18 17 16 16 16 16 16 16 16 15 15 15 15 16 16 16 16 16
24 25 25 26 26 26 27 26 25 23 21 20 19 18 16 13 12 11 10 11 12 13 14 14 14 14 14 13 13 12 12 12 13 13 12 13 13 13 13 12 12 15 18 20 20 22 22 21 19 18 15 13 11 9 8 6 6 9 10 11 11 12 13 14 14 15 16 16 16 16 15 15 15 15 15 14 14 14 14 13 14 14 15 15 15
24 25 25 25 26 27 27 27 25 23 22 20 18 17 16 13 12 11 10 11 11 13 14 15 15 14 14 13 13 12 12 13 13 14 13 13 13 14 13 12 11 10 14 19 20 21 21 21 20 18 16 14 12 10 9 6 5 6 8 9 11 11 11 12 12 12 14 15 15 15 15 14 14 14 14 14 14 13 13 12 13 13 13 13 14
25 25 25 25 26 27 27 27 26 24 22 20 18 17 15 13 12 11 11 12 12 13 15 15 14 14 13 13 12 11 12 13 13 13 13 13 14 14 13 13 12 9 11 17 19 20 20 21 20 19 17 15 13 12 10 8 6 5 6 7 10 10 10 10 10 10 11 12 14 14 14 14 14 13 12 12 13 13 13 12 12 12 12 12 13
23 24 25 25 26 26 27 27 26 24 23 21 19 17 15 13 11 11 12 12 12 13 14 14 13 13 12 12 11 11 12 13 12 12 12 14 14 14 13 12 12 10 10 14 17 19 19 19 19 19 18 17 15 13 11 9 7 6 5 5 7 8 8 8 8 8 9 10 11 12 13 14 14 13 12 11 12 12 12 12 11 11 11 11 11
21 22 24 25 26 26 27 27 27 25 23 21 20 18 15 14 12 12 13 13 13 13 13 13 13 12 11 11 10 10 11 12 12 12 12 13 13 12 12 11 11 11 11 12 14 16 18 18 18 18 19 18 17 15 12 10 8 7 5 5 5 6 7 7 7 8 8 9 10 11 12 13 14 13 12 11 10 10 10 10 10 10 10 9 9
20 21 23 25 26 27 27 27 27 25 23 22 21 19 16 15 13 14 15 13 13 13 13 13 12 12 11 11 10 10 10 10 11 12 11 11 11 10 11 10 10 10 11 11 11 13 15 16 17 18 19 19 18 16 14 11 10 8 6 5 4 4 5 6 7 8 8 9 9 10 11 13 13 12 11 10 9 7 8 8 9 9 9 9 8
22 22 22 25 26 27 27 27 27 25 23 22 22 20 17 16 14 15 15 14 13 13 13 13 12 11 10 10 10 10 10 10 10 10 10 10 9 8 8 9 9 9 9 9 9 10 11 13 15 17 18 19 18 18 15 12 11 9 7 6 5 4 5 6 7 7 8 8 8 9 11 12 12 11 10 9 8 6 6 6 7 7 7 8 7
24 23 22 24 26 27 26 26 26 25 24 23 22 20 18 16 15 15 14 13 13 12 12 12 11 10 10 9 9 9 10 11 11 10 9 9 7 6 6 7 7 8 7 7 7 8 8 10 12 14 17 18 18 18 17 13 11 10 8 6 5 4 4 6 6 6 6 7 7 8 10 10 10 10 9 8 7 6 4 4 5 5 6 6 6
26 23 24 26 26 26 25 26 26 25 24 23 22 20 18 16 15 15 13 12 12 12 11 10 10 9 9 8 8 9 10 10 10 10 8 7 6 5 5 6 6 7 7 6 6 6 7 8 9 11 14 16 17 17 16 14 12 11 9 8 6 4 4 5 5 4 4 6 6 6 7 7 8 8 8 7 7 5 3 2 2 3 4 4 5
27 25 27 28 27 26 25 26 25 25 24 23 22 20 18 16 16 15 13 12 12 11 11 10 9 9 8 7 8 9 10 10 9 9 7 7 6 6 5 5 6 6 6 6 6 5 6 7 8 9 10 12 14 14 14 13 12 11 10 9 7 5 3 3 3 2 3 4 4 4 5 6 7 7 7 6 6 5 3 2 1 1 1 2 3
27 27 28 28 28 27 25 25 25 24 24 23 21 19 18 16 15 14 13 12 11 11 10 9 8 8 8 7 8 9 10 9 8 7 7 7 7 6 5 5 5 5 5 5 5 5 5 6 6 7 8 10 11 11 11 10 11 11 11 10 8 6 3 1 0 0 2 3 3 3 4 5 6 6 5 5 5 5 3 2 1 1 1 1 1
28 28 29 28 29 27 26 25 24 24 23 22 21 19 17 16 15 14 12 12 11 10 9 9 8 8 8 8 8 9 9 8 7 6 6 7 6 5 5 4 4 4 5 5 5 5 5 6 6 6 7 8 8 8 8 8 9 10 10 10 9 8 5 3 2 1 1 2 1 1 2 3 3 3 3 3 3 4 3 2 1 1 1 1 1
28 28 28 28 28 27 26 25 24 23 22 21 20 18 16 16 15 13 12 11 10 10 9 8 7 8 8 8 9 8 8 7 6 5 5 6 5 4 3 4 4 3 4 5 6 6 6 6 6 6 6 7 7 7 6 6 6 8 10 10 9 8 6 4 2 1 0 1 1 0 1 1 1 2 2 2 2 3 3 2 1 1 1 1 1
28 28 27 27 27 26 26 25 24 23 22 21 18 17 16 15 14 12 11 10 10 10 9 8 7 8 8 9 9 8 8 6 5 5 5 5 4 3 3 4 5 3 5 5 6 7 7 7 6 6 6 6 7 6 6 5 5 6 8 9 8 7 5 3 1 1 0 1 2 1 2 2 1 2 1 2 3 3 4 3 2 1 1 1 1
29 28 27 27 27 26 26 25 25 23 22 19 17 16 15 14 13 12 11 9 10 10 9 9 8 8 9 9 8 7 7 6 6 6 5 4 4 4 4 5 5 5 5 6 7 8 8 8 7 7 7 6 6 6 5 5 5 5 6 6 6 5 4 2 1 0 1 2 2 1 2 2 2 3 1 2 3 4 5 3 3 2 1 0 1
30 28 27 27 27 27 26 26 25 23 21 19 17 16 14 13 12 11 11 10 10 9 10 9 9 9 9 9 8 7 6 6 7 6 5 5 5 6 4 4 5 6 6 5 5 7 8 8 8 8 7 7 6 6 5 4 4 4 4 5 5 4 3 2 1 2 3 3 3 2 3 3 2 3 1 1 3 5 5 3 3 4 3 3 4
30 28 27 27 27 27 26 26 25 23 20 19 17 16 15 13 12 11 11 11 10 10 10 9 9 9 8 9 8 6 5 7 8 6 5 6 6 6 4 4 4 6 6 4 5 6 8 8 7 7 7 6 6 5 5 4 4 3 4 4 4 4 4 4 3 3 3 3 3 3 4 4 3 3 1 1 2 4 6 6 5 4 5 5 4
28 28 28 27 27 27 27 26 24 22 20 19 17 16 15 13 12 12 11 11 11 10 10 9 9 9 9 9 8 6 5 6 7 6 6 6 6 5 4 4 4 5 6 5 5 6 8 8 7 7 6 6 5 5 5 4 4 3 5 5 5 5 5 5 5 5 4 3 3 3 5 5 4 3 2 2 2 4 5 6 7 5 5 4 2
28 29 28 27 27 28 27 26 23 21 20 19 17 15 14 12 11 12 12 12 11 10 9 9 9 9 9 8 7 6 6 6 7 7 6 6 6 5 4 4 4 5 6 6 6 6 7 8 7 7 6 6 5 5 5 5 4 4 6 7 6 6 5 6 6 5 5 4 4 5 6 7 5 4 3 3 3 3 3 4 6 6 5 3 2
29 29 28 27 27 27 26 25 23 21 21 19 16 15 14 12 11 12 12 12 12 10 9 9 9 9 8 7 6 6 5 6 7 6 5 5 6 5 4 4 5 6 6 6 7 7 7 7 7 7 6 6 5 5 5 5 5 5 6 7 7 6 6 6 5 5 5 6 6 6 7 7 7 5 3 3 3 4 2 2 4 5 4 3 2
28 28 28 28 27 26 25 24 23 22 20 18 17 16 14 12 12 12 12 12 12 10 9 9 8 8 7 7 6 6 5 5 6 6 5 5 6 5 5 5 5 6 6 7 7 7 7 7 7 7 7 6 5 5 5 6 6 6 6 7 7 7 6 6 5 6 6 6 7 6 7 8 6 5 4 2 2 4 2 1 3 4 4 2 2
27 27 27 27 26 24 24 23 22 21 20 18 17 16 15 13 13 13 13 13 12 10 9 8 8 7 7 6 6 5 5 5 5 5 5 5 6 6 6 5 5 6 6 6 7 7 6 7 7 7 7 7 6 5 5 6 6 6 6 7 7 7 7 6 6 6 6 6 6 6 7 7 5 5 4 3 2 3 3 0 3 4 5 4 3
27 27 26 26 25 23 22 22 22 21 19 19 18 17 16 14 14 14 14 13 12 11 9 8 8 7 6 5 5 4 5 5 5 5 5 5 5 6 6 6 6 6 6 6 7 6 6 7 7 7 8 8 7 6 6 6 6 6 7 7 8 8 8 7 7 7 6 6 6 6 7 6 5 5 5 3 2 2 2 1 3 4 5 5 4
27 27 26 25 25 23 21 21 21 20 20 20 20 19 17 16 16 15 15 14 13 11 9 8 7 6 5 5 5 5 5 6 5 5 5 5 6 7 8 7 6 6 7 6 6 6 6 7 7 8 7 7 8 7 6 6 6 7 8 8 8 8 8 8 8 7 6 6 6 6 8 7 6 6 5 4 3 2 1 1 3 4 4 5 4
27 26 26 25 26 24 21 20 20 20 21 21 21 20 19 18 18 16 15 14 12 11 9 8 7 6 6 5 5 6 5 6 5 5 5 6 7 8 8 8 7 7 7 7 6 7 7 7 8 8 8 7 8 8 7 7 7 8 9 8 8 8 8 8 8 7 6 6 5 6 7 6 5 6 7 5 3 2 2 1 1 2 3 4 3
28 26 26 25 26 25 21 20 20 20 21 21 20 19 19 18 18 16 14 13 11 10 10 9 8 7 7 7 6 6 6 6 5 6 6 7 7 8 8 8 7 7 7 7 7 7 8 8 8 8 8 8 8 7 8 8 8 8 9 9 9 8 7 8 8 7 6 5 4 4 5 5 5 6 7 5 4 4 3 2 1 1 1 1 2
27 26 26 25 26 24 21 21 20 20 22 21 19 18 18 18 16 15 14 13 12 12 10 9 9 9 9 9 8 7 7 7 6 7 7 7 7 7 7 7 7 7 7 7 8 8 8 8 8 8 8 8 8 8 8 9 9 8 9 9 9 8 6 7 7 6 5 5 4 3 3 4 3 4 4 4 4 5 5 3 2 1 1 2 2
27 26 27 26 26 24 22 22 21 21 22 22 20 18 18 18 16 15 13 13 14 14 12 10 10 10 10 10 9 8 8 7 8 8 7 7 6 6 6 6 6 6 7 8 8 8 8 8 8 8 9 8 8 9 10 10 9 9 8 7 8 7 5 5 6 5 4 5 5 3 4 4 3 2 2 3 3 3 4 4 3 2 2 3 3
29 27 27 28 25 23 22 22 22 22 23 22 21 19 19 19 18 17 16 16 16 15 13 12 10 10 10 11 10 9 8 7 7 8 8 7 6 6 6 6 7 6 7 8 8 8 7 7 8 8 9 8 7 9 11 11 10 9 8 5 5 5 5 7 6 5 3 4 5 4 5 4 4 4 4 4 3 2 2 2 2 1 2 2 2
30 28 27 27 23 22 23 23 23 23 23 22 21 20 20 19 19 18 19 19 18 15 13 11 9 10 10 11 10 9 8 7 7 7 7 7 6 6 6 7 7 6 7 7 7 7 7 7 8 7 8 8 7 7 9 11 11 11 9 6 4 2 4 7 6 7 6 5 5 6 7 6 6 6 5 4 3 3 3 2 1 1 0 1 1
30 28 27 25 22 22 24 24 24 23 23 22 21 21 20 19 18 18 19 18 16 13 12 9 8 9 9 10 10 10 9 8 7 6 7 6 5 5 5 6 6 6 6 6 6 6 7 7 8 8 8 8 8 7 7 9 10 11 11 8 5 1 0 4 4 6 8 8 5 6 8 6 6 5 4 4 4 4 4 4 4 3 3 3 4
30 29 27 25 23 23 24 24 24 24 23 21 21 21 20 19 18 18 17 15 12 11 11 11 9 8 8 8 8 9 10 9 7 6 7 6 5 5 4 5 5 5 5 5 5 5 5 6 7 8 8 8 8 7 6 7 8 10 10 8 7 4 1 3 2 3 7 10 8 7 7 6 6 5 4 5 5 6 6 6 6 6 6 6 6
30 29 27 26 24 23 23 24 25 24 22 21 21 21 19 19 19 19 17 14 12 11 11 11 9 8 8 8 7 7 7 7 7 8 8 7 6 6 5 5 5 5 5 5 5 4 5 5 6 7 8 7 7 7 6 6 7 8 8 7 7 6 4 6 5 3 5 9 9 8 8 8 7 8 8 8 9 9 8 8 9 9 9 9 8
29 29 27 25 25 23 24 25 26 24 21 21 21 21 20 20 20 19 16 15 14 13 12 11 9 9 9 8 7 6 5 6 8 9 9 8 8 7 7 6 6 5 5 5 4 5 5 5 5 6 7 7 6 6 6 7 8 8 7 6 5 6 7 8 7 6 5 6 8 9 9 8 8 10 10 10 10 10 10 10 11 11 11 11 11
28 28 27 25 25 24 24 26 26 24 22 22 21 21 21 21 20 17 15 15 15 13 12 10 10 9 8 7 6 6 6 7 8 9 9 8 8 8 6 6 5 5 5 5 4 4 5 4 4 4 5 6 6 6 7 7 9 9 8 6 3 4 5 4 5 6 6 5 7 12 10 8 9 11 11 11 11 11 11 11 11 12 12 12 13
Wind_Direction
172 172 171 170 174 172 171 169 167 166 162 157 149 146 145 149 154 157 159 161 161 160 160 158 155 152 150 149 148 145 141 138 133 128 122 120 120 121 121 115 110 104 102 101 100 100 100 101 101 102 102 101 101 97 94 93 92 89 84 78 72 68 67 67 67 72 86 96 104 105 96 95 100 101 103 107 108 109 107 100 94 93 93 91 92
169 171 169 169 173 171 170 168 168 166 162 158 149 145 143 145 149 154 156 157 158 158 157 156 154 152 151 150 149 147 143 141 137 133 128 129 130 127 125 119 114 108 107 109 107 105 105 104 103 103 101 100 100 98 95 93 93 91 84 77 72 68 65 64 65 68 79 91 103 108 102 98 100 102 106 110 113 112 108 101 96 94 93 92 93
166 168 168 169 172 170 170 169 168 166 163 158 149 146 143 142 143 149 154 155 157 157 157 155 154 153 154 153 151 148 145 141 138 136 135 136 135 131 128 121 114 112 111 112 111 109 108 106 104 104 102 100 98 97 96 95 93 90 83 76 71 68 65 63 63 65 71 81 100 111 109 107 105 103 105 110 116 115 110 106 99 94 94 93 92
166 165 167 168 169 170 170 169 168 166 163 157 150 146 144 141 139 146 152 155 157 157 158 156 156 155 155 153 151 148 144 140 135 134 137 141 139 134 129 121 116 117 117 116 114 112 111 109 107 106 105 102 100 99 99 98 88 80 80 76 70 66 64 63 62 63 66 71 88 109 116 116 113 108 106 110 118 121 117 111 104 99 96 94 94
166 165 167 167 168 169 170 170 168 165 162 158 152 147 145 140 137 143 150 154 156 156 156 155 156 155 154 151 147 143 139 134 130 130 137 145 142 137 130 121 119 119 118 119 117 117 116 113 112 110 108 104 100 97 96 93 82 74 76 75 69 65 64 62 62 62 63 66 74 93 115 122 118 112 111 116 120 126 128 123 119 113 107 102 100
166 166 167 167 168 169 170 171 167 165 163 159 152 148 145 140 138 140 145 151 153 154 152 152 153 150 151 151 147 144 140 136 133 139 148 148 138 135 131 122 120 121 120 120 121 122 119 116 116 113 110 107 102 96 90 86 80 77 75 73 70 66 64 61 61 62 62 63 66 75 101 121 122 115 115 124 127 129 138 142 138 129 121 114 107
166 166 167 168 168 168 171 171 167 165 164 161 154 148 146 143 139 137 140 146 150 154 153 151 151 146 145 150 149 145 142 141 145 152 157 151 138 134 131 125 124 124 123 124 126 125 121 118 118 115 113 110 104 95 89 85 81 80 76 73 71 68 64 61 59 61 63 63 62 64 78 101 116 118 116 128 130 125 134 147 151 148 139 127 114
167 167 168 169 168 169 171 170 167 166 166 163 155 150 148 146 141 136 137 142 147 153 153 150 149 142 140 143 142 142 140 143 152 157 156 147 137 133 130 128 129 128 127 128 129 126 122 120 119 118 115 109 102 95 89 87 85 82 77 74 73 69 64 61 59 60 62 62 61 61 67 80 94 103 101 116 126 120 125 138 148 158 158 145 133
169 168 168 169 169 169 171 170 168 167 168 164 156 151 149 148 143 138 138 141 143 148 151 151 149 140 140 142 140 141 139 138 145 151 151 143 138 137 133 129 130 130 130 131 131 129 125 122 122 121 115 108 101 95 91 89 88 84 79 77 74 70 65 61 60 59 61 60 59 61 66 72 79 85 88 99 114 117 122 129 136 154 166 165 158
171 169 169 169 169 170 170 170 169 168 169 165 158 152 150 149 145 142 142 142 143 146 149 151 148 140 143 147 146 142 137 137 138 140 140 139 139 138 133 126 129 133 133 134 133 132 128 125 124 122 116 110 104 97 94 92 89 86 81 80 77 72 67 63 60 60 62 61 59 60 63 68 73 77 82 90 99 106 112 117 124 137 156 167 170
171 170 169 169 169 169 169 170 171 170 169 165 159 153 151 152 148 146 146 147 147 148 150 150 146 142 146 148 147 141 136 136 134 130 128 130 134 134 130 126 131 137 138 137 135 133 131 130 128 124 120 115 111 102 97 95 91 89 84 82 79 73 70 65 61 60 61 61 59 59 60 64 69 74 79 83 88 92 96 99 105 111 124 138 147
171 170 167 167 168 169 170 172 172 171 169 165 161 156 155 155 151 150 150 153 152 150 149 146 142 142 144 143 142 139 135 132 130 129 127 127 126 127 131 131 136 141 142 140 137 135 134 134 132 128 128 125 118 109 101 99 96 92 87 83 79 76 73 67 61 59 59 59 58 58 60 63 67 72 78 81 83 85 88 91 92 93 97 102 106
170 170 168 168 168 170 172 173 173 172 170 167 164 161 159 158 155 154 152 154 152 149 147 142 141 139 139 138 137 134 131 128 130 133 131 128 126 126 125 127 137 144 145 144 141 140 140 138 137 136 136 134 127 119 108 104 100 97 92 85 81 80 77 69 64 61 58 58 58 57 59 63 67 70 75 79 81 82 84 85 86 86 86 87 87
169 170 169 170 170 171 174 174 174 173 171 168 166 166 165 161 160 157 150 150 148 146 145 142 140 137 136 134 133 130 125 124 127 131 131 132 131 128 122 122 134 145 148 148 147 145 145 144 143 144 143 142 137 133 120 109 105 102 96 88 85 85 80 72 66 64 61 58 57 56 56 60 66 69 72 76 78 81 84 84 85 84 84 82 80
170 170 169 170 171 172 174 175 175 174 172 169 169 172 169 164 162 157 148 147 144 142 143 143 141 137 135 132 130 126 121 120 121 123 127 131 131 131 128 124 133 145 151 152 152 151 151 150 150 151 151 151 149 147 136 116 109 106 101 93 90 90 84 76 70 68 65 62 60 59 58 58 62 67 70 73 76 79 82 83 84 84 84 83 81
170 168 169 171 171 172 173 175 176 175 172 171 173 174 170 165 161 157 149 147 144 143 144 144 142 135 131 128 125 122 117 115 115 115 117 121 124 128 124 117 127 143 152 156 157 157 156 155 156 157 158 160 160 158 152 137 117 111 107 98 94 94 90 80 75 73 69 66 65 65 62 58 59 64 67 70 73 75 78 80 81 83 83 83 83
170 169 171 172 171 171 173 175 176 175 174 174 175 175 170 164 160 156 150 149 147 145 144 141 138 131 129 126 122 117 112 113 115 116 115 116 119 120 118 116 122 137 151 157 161 161 162 161 161 163 164 168 171 169 166 164 136 119 113 105 98 96 94 86 81 79 74 71 70 68 65 60 58 60 64 66 68 71 74 76 77 81 82 82 83
172 173 173 172 171 172 173 174 174 174 174 174 174 175 170 164 160 157 152 151 149 148 144 140 138 133 131 128 122 115 110 110 113 116 117 118 119 119 121 127 131 138 150 158 164 165 166 167 167 168 169 173 180 180 178 181 163 132 118 110 104 100 96 90 86 83 79 75 73 70 68 64 58 56 58 61 63 66 68 69 73 76 78 79 82
174 174 172 172 171 171 172 173 175 175 175 172 170 172 168 163 160 159 154 150 150 149 147 144 142 137 134 130 125 118 110 110 111 113 118 119 120 123 128 134 141 146 142 150 164 169 170 172 172 172 173 177 186 188 184 188 182 151 128 114 111 108 100 96 92 85 81 79 76 72 68 65 60 56 54 54 55 58 60 61 67 72 75 77 80
172 171 171 172 171 171 173 174 175 175 176 171 169 171 167 164 162 160 154 150 150 150 150 147 146 141 139 135 129 122 113 114 117 118 118 118 119 122 127 130 135 134 123 132 152 167 174 177 178 178 179 182 190 195 189 187 189 167 146 128 118 115 107 103 98 89 83 80 78 74 70 65 60 57 53 49 48 51 54 55 60 65 71 75 79
168 170 170 172 171 172 175 176 175 176 176 171 171 172 168 167 164 160 155 152 152 152 153 152 151 147 144 141 134 124 115 118 124 126 122 118 118 116 117 118 117 117 116 123 138 156 171 179 183 185 186 188 192 198 194 189 191 180 165 153 136 126 117 112 103 91 85 81 79 77 73 68 62 57 54 49 46 48 50 52 55 58 63 69 76
167 169 170 172 172 175 177 178 177 177 176 172 173 172 169 170 168 163 156 153 155 155 158 160 159 152 148 145 136 126 118 119 122 125 124 119 117 115 115 114 111 109 111 116 126 142 159 174 185 190 190 191 194 200 199 194 193 188 180 171 161 151 134 121 107 93 86 82 79 77 73 68 63 60 58 55 52 51 51 52 53 53 55 62 68
170 170 171 173 175 178 179 180 179 178 178 175 175 175 172 173 171 165 158 158 159 159 163 165 164 156 151 147 139 133 127 123 120 121 124 123 120 116 116 115 114 109 108 111 118 129 145 163 178 190 194 195 197 201 203 199 195 190 185 181 177 173 150 128 112 97 87 80 75 71 67 65 63 59 57 56 56 57 57 55 55 53 51 54 59
173 172 172 175 179 181 181 181 181 179 180 178 177 178 176 175 172 166 164 165 162 161 165 166 165 160 154 148 143 140 136 131 127 127 126 128 127 121 120 119 118 115 113 113 113 121 135 151 166 184 194 198 200 201 204 204 199 189 185 189 187 184 163 138 119 101 86 76 69 64 62 62 62 60 54 51 54 59 60 59 58 57 55 52 54
174 174 177 179 182 184 183 182 183 182 182 181 179 180 179 178 173 169 170 169 166 165 167 168 166 162 156 149 146 141 137 136 132 131 127 131 133 125 127 125 125 125 122 116 113 120 129 144 158 175 189 197 201 202 205 208 204 193 189 196 199 199 178 144 122 104 88 74 66 63 62 60 59 59 53 46 45 51 56 59 59 59 59 56 55
174 178 183 183 184 186 186 185 186 184 183 184 182 182 182 180 175 172 173 173 173 172 171 171 168 163 157 149 146 142 139 139 136 133 129 134 133 128 134 133 131 131 128 122 120 122 128 140 151 166 181 192 199 202 205 209 208 199 194 200 207 209 194 149 119 104 90 73 64 61 59 54 51 51 48 41 34 36 40 41 41 60 70 63 59
177 184 186 185 186 187 188 188 188 185 185 186 186 184 183 181 177 175 178 179 178 177 175 172 169 164 159 149 146 146 145 144 141 136 132 136 134 132 136 132 130 131 137 138 138 136 139 148 152 162 174 184 193 198 202 206 208 205 200 202 207 212 216 208 243 110 89 73 64 55 53 47 47 49 49 41 32 32 32 23 345 286 192 125 83
182 187 189 187 187 189 190 190 189 187 187 187 187 186 183 181 180 181 182 184 182 182 180 174 170 165 161 154 150 152 154 150 144 137 132 138 138 136 135 132 129 138 155 159 160 158 160 164 164 167 171 179 186 191 196 201 206 208 206 207 211 218 229 241 264 269 84 82 89 60 60 47 48 60 50 37 32 37 33 12 320 272 235 200 157
186 190 192 190 189 191 192 192 190 189 188 188 188 186 185 185 185 187 187 188 188 187 187 179 172 170 167 159 154 159 161 157 151 147 144 148 146 139 143 150 142 152 172 178 178 179 183 182 181 181 180 182 186 190 195 200 205 208 209 210 214 220 231 243 271 286 75 119 149 95 26 358 56 93 51 42 37 36 28 3 321 269 233 207 200
190 194 194 192 192 194 194 193 193 191 191 189 187 185 187 189 189 192 194 195 194 193 192 183 176 176 172 163 161 165 169 167 160 162 163 160 160 155 160 170 163 165 182 192 194 194 197 197 196 195 196 195 194 197 200 207 209 209 207 208 210 217 229 244 291 326 220 177 200 264 283 289 124 134 44 64 56 27 22 20 22 336 226 204 200
194 197 196 196 196 196 196 195 194 194 193 190 186 186 188 190 191 196 200 201 198 197 194 186 181 180 174 169 168 171 178 181 169 170 176 173 178 176 177 181 181 181 185 197 204 204 204 204 207 205 207 206 205 206 203 205 207 210 209 206 210 216 227 239 291 277 203 215 236 264 250 241 144 162 242 61 51 25 24 36 48 36 86 126 48
197 199 197 198 198 198 197 196 196 195 193 189 187 188 190 191 195 201 202 202 200 196 195 191 187 183 178 176 176 177 186 189 178 176 186 190 193 188 183 185 192 191 187 198 207 209 207 207 210 208 210 209 211 211 206 201 199 210 213 209 211 207 207 198 180 199 211 225 229 221 221 216 167 182 218 62 46 37 42 56 43 30 54 53 36
200 201 199 200 200 200 198 197 197 195 193 190 189 191 191 194 199 203 204 203 198 195 195 193 189 186 185 184 186 188 190 191 188 191 197 199 197 192 191 194 198 199 200 212 211 208 207 209 210 207 206 204 205 203 198 195 192 199 194 189 187 179 181 181 185 197 208 219 209 208 210 199 189 193 165 91 50 42 44 44 36 39 67 57 39
203 203 202 201 202 203 201 200 198 195 194 192 192 192 193 197 201 203 204 201 196 194 194 190 190 191 191 190 193 201 198 194 199 207 210 206 201 195 201 206 203 204 206 210 209 209 209 211 210 205 201 193 191 187 183 179 174 174 171 166 162 161 167 170 175 180 195 210 197 203 204 194 190 177 146 117 78 52 42 33 38 68 92 74 60
206 205 204 201 203 205 204 203 198 196 196 193 193 193 196 198 197 200 198 197 195 192 190 190 194 196 194 192 197 206 203 203 208 212 213 210 203 198 203 203 196 197 195 196 203 208 209 208 205 200 195 185 179 176 174 168 155 154 162 167 165 157 152 156 165 177 190 194 181 194 198 191 186 171 156 140 122 91 52 23 43 87 120 126 123
206 207 206 202 205 208 207 205 199 197 196 193 193 194 199 197 192 193 192 192 190 188 190 192 197 197 195 197 202 206 203 206 209 210 211 206 202 197 196 194 189 188 186 191 198 201 200 198 196 192 184 179 178 169 168 166 149 142 152 163 167 157 147 152 166 176 182 181 180 195 197 191 187 171 151 141 140 127 114 358 47 91 131 155 161
206 208 209 204 205 208 209 207 200 197 194 192 193 195 198 195 188 187 186 187 185 187 190 191 195 197 201 207 211 213 209 207 207 208 203 196 197 192 192 194 188 184 182 188 195 194 191 189 192 188 175 171 175 165 162 162 145 138 146 152 159 161 164 169 175 177 179 182 183 192 195 190 183 163 148 154 145 127 146 297 40 74 101 128 173
207 210 212 207 205 208 210 208 201 195 193 192 193 194 196 191 184 183 184 184 184 186 186 188 195 200 207 211 215 216 207 201 197 195 189 187 190 187 193 200 194 189 188 192 195 194 191 189 188 183 173 165 163 160 160 159 146 142 145 145 150 162 172 168 164 171 173 177 179 184 189 183 171 159 155 166 159 129 140 85 41 50 64 91 128
211 212 214 210 208 210 210 206 200 195 193 192 192 192 192 186 181 181 184 185 184 184 182 186 192 198 204 203 200 195 186 182 176 176 179 180 184 188 193 198 198 197 195 194 194 191 189 191 186 176 174 168 164 165 164 161 152 150 154 153 152 159 161 150 153 166 168 176 179 181 183 176 169 168 165 167 162 130 117 73 48 41 45 64 102
214 215 215 212 211 213 209 203 199 196 194 192 191 190 187 183 181 182 185 184 179 178 178 181 185 186 189 182 173 172 168 169 169 175 180 178 185 191 189 187 195 201 197 189 187 185 182 189 185 173 174 175 171 171 167 165 161 158 160 158 156 159 154 147 161 173 170 177 180 179 184 183 181 179 175 174 168 147 119 81 48 47 48 49 71
215 217 218 214 214 216 211 202 198 197 196 193 190 188 186 183 183 185 186 182 176 176 175 174 176 175 172 166 164 164 164 168 170 171 172 176 183 185 182 183 192 200 196 186 184 186 180 183 186 177 175 178 178 176 170 169 171 167 161 157 156 157 152 148 161 171 165 169 173 179 189 193 197 192 184 183 184 189 194 170 75 54 60 55 58
216 217 219 216 215 217 212 204 200 196 196 195 190 188 188 187 186 184 183 178 173 171 171 169 170 173 172 167 167 169 170 170 165 165 168 174 179 182 187 190 196 198 193 184 181 183 181 181 186 183 177 177 180 182 177 173 178 181 172 161 151 149 153 154 162 170 166 166 169 177 190 197 208 205 195 195 200 205 218 214 173 81 49 46 40
218 218 220 219 218 217 211 206 202 197 195 193 191 190 188 187 185 181 179 175 166 160 163 167 170 177 180 175 174 175 175 170 164 169 172 172 173 178 189 192 192 192 184 180 182 182 184 186 186 184 181 181 185 186 184 180 179 186 182 168 158 154 160 171 176 179 180 174 170 167 169 172 181 195 196 195 199 205 218 230 223 245 321 329 309
220 220 220 221 219 214 208 205 201 198 195 191 191 191 186 182 178 175 176 171 163 159 160 165 170 178 184 182 177 172 168 167 167 168 167 165 165 166 173 178 180 184 178 176 184 185 187 191 191 188 185 189 193 188 185 184 183 186 185 174 169 163 163 186 180 170 179 171 158 151 145 141 144 155 162 168 179 195 212 231 248 268 307 312 290
220 220 221 222 217 210 207 205 202 198 195 192 191 190 185 179 173 171 173 168 166 165 163 161 159 162 170 172 168 164 162 164 167 164 160 160 162 161 164 167 171 180 179 174 179 186 188 191 195 194 186 185 195 196 187 185 185 190 193 178 169 173 183 191 163 131 140 142 137 135 132 128 119 117 132 151 152 144 180 219 248 274 310 314 295
220 220 222 223 217 209 207 206 202 198 195 193 192 190 186 180 176 177 176 172 172 171 165 160 151 147 153 158 157 158 161 164 167 166 165 164 165 166 164 164 167 174 181 177 175 184 190 191 191 192 188 179 183 197 192 190 191 194 202 198 181 192 196 190 164 134 115 102 122 126 119 123 122 125 141 141 129 123 126 129 134 132 30 20 34
221 221 223 223 217 209 207 206 203 200 198 194 191 190 186 182 183 183 181 178 178 172 162 159 154 147 150 154 154 156 158 161 165 170 172 171 174 176 169 164 164 172 183 176 169 181 190 191 190 188 190 182 176 183 189 198 203 202 206 206 201 238 170 188 177 149 127 110 119 129 127 132 131 136 145 125 120 124 118 113 110 100 89 92 99
222 224 223 221 217 209 205 207 205 202 201 196 191 188 186 185 183 182 183 183 181 170 162 163 162 155 156 159 156 156 157 158 163 171 174 175 180 184 175 165 163 169 180 177 171 179 185 192 195 190 191 185 175 179 186 199 211 207 207 207 209 227 215 188 190 173 153 138 134 136 133 134 130 123 116 112 116 114 108 103 95 90 93 99 107
223 225 223 220 218 209 203 205 205 204 202 195 190 186 186 189 185 181 183 181 178 174 170 169 166 163 166 166 162 158 156 158 164 168 168 169 172 174 171 168 167 163 169 178 180 180 176 183 192 192 193 188 181 187 189 195 208 211 211 209 213 219 201 184 181 194 172 147 145 150 138 129 124 113 110 113 112 108 103 99 95 93 98 104 107
224 226 224 222 221 212 202 202 205 205 199 192 189 186 187 189 186 184 185 181 179 180 176 172 169 169 172 171 166 157 147 148 157 161 162 163 163 167 170 172 174 171 174 181 181 183 183 178 181 189 193 191 194 200 195 195 206 215 216 215 224 215 194 186 190 189 178 157 153 151 141 135 130 119 117 116 112 110 105 100 99 99 100 101 100
225 225 225 225 224 217 203 199 204 206 197 190 190 189 189 190 188 187 187 185 184 183 177 173 170 169 172 172 167 151 137 141 150 157 163 163 160 163 166 170 178 184 189 189 179 177 181 176 176 182 186 187 195 205 203 201 207 213 212 208 212 206 192 198 212 202 190 186 160 145 140 144 140 129 123 119 114 112 108 105 104 102 100 98 96